C/2024 W1 ( PanSTARRS )

Japanese version
Home page
Updated on December 28, 2024

---------------------------------------------------------------------

* Profile

Discovery Date November 22, 2024
Magnitude 20.7 mag
Discoverer Pan-STARRS 1 telescope (Haleakala)

* Orbital Elements

Epoch 2024 Oct. 17.0 TT = JDT 2460600.5                                         
T 2025 Mar. 19.30043 TT                                 Veres                   
q   2.5594232            (2000.0)            P               Q                  
z  +0.0229903      Peri.  256.80298     -0.23624914     +0.61474784             
 +/-0.0051772      Node   310.72647     +0.47433479     -0.60293035             
e   0.9411580      Incl.   83.20514     -0.84805239     -0.50848803             
From 20 observations 2024 Nov. 22-Dec. 6, mean residual 0".3.                   

* Magnitudes Graph

        m1 = 12.0 + 5 log d + 10.0 log r

---------------------------------------------------------------------

The orbital elements are published on M.P.E.C. 2024-X279.
The magnitudes graphs are made with Comet for Windows.

---------------------------------------------------------------------

Copyright(C) Seiichi Yoshida (comet@aerith.net). All rights reserved.